Location: The Jewett Observatory
(46.7288°N, 117.1525°W)
Time: 16:48:57
(UTC-07:00)

Daily predictions for brighter satellites

Satellite Brightness Start Highest point End
(mag) Time Altitude Azimuth Time Altitude Azimuth Time Altitude Azimuth
NOSS 3-2 (A) 3.5 18:47:16 10° SSW 18:53:20 74° SE 19:00:02 10° NE
Okean 3 Rocket 4.0 18:49:01 10° NNW 18:53:35 75° W 18:58:06 10° S
Cosmos 1943 Rocket 3.8 18:54:33 10° N 18:58:18 18° NE 19:02:00 10° E
Cosmos 1805 4.0 18:55:08 10° SSE 18:58:38 31° E 19:02:09 10° NNE
Cosmos 1452 Rocket 3.5 18:53:30 10° NNW 18:58:48 79° ENE 19:04:03 10° SSE
NOAA 12 4.2 18:54:32 10° SSE 18:59:40 56° ENE 19:04:51 10° N
USA 238 DEB 4.5 18:55:11 10° WSW 19:02:06 56° NW 19:09:02 10° NE
USA 238 4.5 18:55:16 10° WSW 19:02:12 57° NW 19:09:09 10° NE
ALOS 3.4 19:01:19 10° ESE 19:05:00 24° ENE 19:08:42 10° NNE
Helios 1B rocket 3.6 19:01:49 10° NE 19:05:05 22° E 19:08:21 10° SSE
Cosmos 2369 Rocket 2.9 19:01:35 10° NNW 19:06:46 35° NE 19:11:57 10° ESE
Cosmos 192 4.3 19:01:55 10° SSW 19:06:51 78° ESE 19:11:51 10° NNE
DMSP B5D1-3 4.5 19:02:27 10° NNE 19:07:33 68° ESE 19:12:37 10° S
ISS -1.7 19:05:46 10° S 19:08:13 20° SE 19:10:31 11° E
Resurs 01 Rocket 2.1 19:04:55 10° SE 19:09:04 40° ENE 19:13:14 10° N
Cosmos 1943 4.3 19:07:39 10° SSE 19:11:42 21° E 19:15:46 10° NE
Cosmos 1953 2.5 19:08:49 10° SSE 19:12:38 46° E 19:16:28 10° NNE
COSMO-SKYMED 1 2.8 19:10:31 10° N 19:14:53 78° WNW 19:19:13 10° SSW
ERBS 3.9 19:12:23 10° NW 19:15:19 24° NNE 19:17:57 12° ENE
Cosmos 1420 Rocket 4.0 19:12:35 10° NNW 19:17:53 66° ENE 19:23:09 10° SSE
Cosmos 1603 3.9 19:13:12 10° S 19:18:43 52° ESE 19:24:18 10° NE
CENTAUR R/B 3.3 19:14:05 10° SSE 19:19:07 27° ESE 19:24:36 10° NE
Cosmos 1674 3.4 19:17:52 10° N 19:21:26 33° ENE 19:24:58 10° SE
Cosmos 1470 3.8 19:21:04 10° SE 19:24:15 25° E 19:27:27 10° NE
In-Cosmos 22 4.4 19:19:16 10° NNW 19:25:04 85° W 19:30:49 10° S
Cosmos 1076 Rocket 4.0 19:21:51 10° NNW 19:26:08 64° W 19:30:26 10° S
Abrixas 3.3 19:23:26 10° SW 19:26:12 34° SSE 19:27:53 18° E
GP-B 4.4 19:24:47 10° NNE 19:28:06 20° E 19:30:26 14° ESE
Nadezhda 4 Rocket 4.0 19:24:33 10° N 19:30:49 64° ENE 19:36:57 10° SSE
Cosmos 1766 Rocket 3.9 19:27:44 10° NNW 19:32:06 68° W 19:36:24 10° S
ATLAS CENTAUR R/B 3.9 19:27:32 10° SW 19:33:01 79° SE 19:51:32 10° NE
NOSS 3-2 (C) 3.7 19:27:35 10° SW 19:33:46 80° NW 19:40:35 10° NE
Spot 2 Rocket 3.4 19:30:35 10° SSE 19:35:36 76° ENE 19:40:40 10° NNW
Cosmos 2151 3.9 19:32:32 10° NNE 19:36:10 27° ENE 19:38:14 18° ESE
Cosmos 1346 3.0 19:33:39 10° NNW 19:36:39 87° WSW 19:39:37 10° S
Cosmos 2333 Rocket 4.5 19:33:15 10° W 19:37:52 24° NW 19:42:30 10° N
Cosmos-2242 3.0 19:34:33 10° S 19:38:55 81° E 19:43:21 10° N
HJ-1C 3.3 19:35:37 10° SSE 19:38:59 82° ENE 19:42:22 10° N
FREGAT/IRIS 3.2 19:36:29 10° S 19:39:32 60° W 19:42:37 10° NNW
Cosmos 1048 Rocket 4.1 19:34:36 10° S 19:39:42 51° ESE 19:44:46 10° NNE
SJ-6B 3.7 19:36:45 10° S 19:40:41 54° W 19:44:44 10° NNW
Cosmos 1092 Rocket 4.0 19:34:45 10° N 19:40:53 56° ENE 19:46:54 10° SSE
ATLAS 5 CENTAUR R/B 2.2 19:38:54 10° SW 19:43:44 69° NW 19:49:04 10° NE
Cosmos 1544 3.0 19:40:51 10° S 19:44:35 75° E 19:48:20 10° NNE
Cosmos 2221 4.3 19:46:32 15° ENE 19:46:32 15° ENE 19:47:47 10° NE
Cosmos 1269 Rocket 4.0 19:40:11 10° S 19:45:24 67° ESE 19:50:40 10° NNE
Envisat 4.4 19:45:50 18° ENE 19:46:54 19° ENE 19:50:23 10° NNE
Cosmos 1174 4.5 19:46:45 10° S 19:50:53 34° ESE 19:52:20 25° ENE
Cosmos 158 Rocket 4.2 19:46:37 10° S 19:51:05 38° ESE 19:55:36 10° NE
Cosmos 2026 Rocket 4.4 19:45:59 10° N 19:51:41 39° ENE 19:55:57 17° SE
CZ-4B DEB 2.7 19:55:35 26° SSE 19:57:14 61° ENE 20:00:29 10° N
Cosmos 1758 4.2 19:53:21 10° SSW 19:57:22 54° WNW 20:01:25 10° N
FengYun 1-2 T 4.2 19:52:24 10° SSE 19:57:54 90° WSW 20:03:26 10° NNW
Cosmos 1634 Rocket 4.1 19:54:25 10° SSE 20:00:23 50° E 20:06:20 10° NNE
USA 215 3.5 19:56:44 13° ENE 20:02:26 47° SE 20:08:40 10° SSW
Cosmos 1500 Rocket 3.6 19:59:40 10° N 20:04:08 86° W 20:08:36 10° S
Cosmos 1842 Rocket 3.4 20:03:46 10° S 20:08:05 80° E 20:12:29 10° N
Cosmos 2195 Rocket 4.5 20:07:49 10° N 20:14:07 65° ENE 20:19:28 15° SSE
Helios 1A 3.9 20:10:46 10° S 20:14:51 49° W 20:18:58 10° NNW
SL-16 R/B 4.2 20:10:26 10° WSW 20:15:21 29° NW 20:20:17 10° N
Meteor 1-29 3.2 20:12:00 10° N 20:15:31 70° WNW 20:18:59 10° SSW
ERS-1 Rocket 3.6 20:15:51 34° E 20:16:28 35° ENE 20:21:01 10° N
Cosmos 1328 3.6 20:12:55 10° N 20:16:55 72° E 20:18:11 41° SSE
CZ-2D R/B 3.2 20:17:14 27° SSE 20:19:16 87° WSW 20:23:11 10° NNW
CZ-4B DEB 4.4 20:19:33 59° SE 20:20:09 77° ENE 20:23:46 10° N
FENGYUN 3A 3.7 20:15:01 10° S 20:20:24 79° WSW 20:25:50 10° NNW
SL-14 R/B 3.6 20:16:28 10° N 20:20:16 47° ENE 20:20:16 47° ENE
Cosmos 1110 Rocket 3.9 20:23:01 10° NNW 20:28:22 83° ENE 20:30:36 36° SSE
USA 186 4.0 20:30:37 14° NNW 20:30:37 14° NNW 20:31:04 10° NNW
H-2A R/B 3.0 20:27:37 30° S 20:29:26 68° WSW 20:33:17 10° NNW
Cosmos 1939 Rocket 4.1 20:32:05 28° NNE 20:32:05 28° NNE 20:34:26 10° N
ASTEX 1 3.7 20:30:14 10° N 20:35:07 66° W 20:39:57 10° SSW
CZ-4C R/B 4.5 20:30:48 10° WNW 20:35:18 22° NNW 20:40:14 10° NNE
Helios 1B rocket 4.0 20:36:44 10° N 20:40:31 35° WNW 20:44:16 10° SW
ALOS 3.3 20:37:44 10° S 20:42:12 44° W 20:46:41 10° NNW
Cosmos 1943 Rocket 2.0 20:37:21 10° NNW 20:43:01 80° ENE 20:44:16 55° SE
ISS -1.9 20:41:09 10° WSW 20:43:12 35° WSW 20:43:12 35° WSW
Resurs 01 Rocket 4.0 20:42:08 10° SSW 20:45:41 23° W 20:49:14 10° NW
Sich 1 4.0 20:44:43 10° N 20:47:34 36° NNE 20:47:34 36° NNE
SPOT 5 4.4 20:51:18 21° NNE 20:51:18 21° NNE 20:53:10 10° N
Cosmos 2251 Rocket 3.3 20:44:18 10° SSW 20:49:30 75° ESE 20:54:46 10° NNE
SL-8 R/B 3.5 20:45:25 10° WSW 20:50:13 89° SSE 20:50:17 87° ESE
Cosmos 2369 Rocket 3.2 20:45:35 10° NW 20:50:53 43° WSW 20:54:43 18° S
ERBS 3.6 20:48:56 10° NW 20:51:22 41° WNW 20:51:22 41° WNW
Aureole 3 4.1 20:47:00 10° N 20:53:03 63° ENE 20:53:03 63° ENE
Cosmos 1943 3.5 20:49:37 10° SW 20:55:13 66° WNW 21:00:50 10° NNE
Cosmos 1331 Rocket 4.3 20:54:09 10° NNW 20:59:25 63° WSW 21:00:45 47° SSW
Gbstr 26 Del rocket 3.3 20:57:06 10° WSW 21:01:40 83° SSW 21:01:40 83° SSW
Cosmos 2058 3.6 21:00:29 10° NNW 21:04:18 51° W 21:04:18 51° W
Cosmos 2180 Rocket 4.3 21:04:20 66° SSE 21:05:07 76° E 21:11:16 10° NNE
GP-B 4.2 21:01:25 10° NNW 21:05:38 43° W 21:07:56 23° SW
CENTAUR R/B 2.8 21:02:56 10° SW 21:09:07 68° NW 21:16:11 10° NE
Cosmos 1302 Rocket 4.0 21:08:00 10° NNW 21:12:56 76° WNW 21:12:56 76° WNW
H-2A R/B 3.8 21:17:28 27° N 21:17:28 27° N 21:19:40 10° N
Cosmos 1805 Rocket 4.4 21:11:40 10° NNW 21:15:27 49° WNW 21:15:27 49° WNW
Cosmos 2279 Rocket 4.1 21:16:56 27° SSW 21:20:27 72° W 21:26:41 10° N
Cosmos 2221 3.9 21:23:21 36° NNW 21:23:21 36° NNW 21:26:19 10° N
Envisat 3.4 21:26:02 61° WNW 21:26:02 61° WNW 21:30:29 10° NNW
ATLAS 5 CENTAUR R/B 4.3 21:25:39 10° WNW 21:29:29 21° NNW 21:33:34 10° NNE
Cosmos 2266 Rocket 4.1 21:28:53 10° N 21:34:23 68° N 21:34:23 68° N
Terra 4.4 21:41:35 12° NNE 21:41:35 12° NNE 21:42:05 10° N
Cosmos 1656 Rocket 4.4 21:39:29 10° NNW 21:43:30 49° NW 21:43:30 49° NW
USA 215 3.5 21:44:08 52° NNE 21:45:37 66° NNW 21:52:05 10° WSW
H-2A R/B 4.1 21:51:18 19° N 21:51:18 19° N 21:52:56 10° N
ARGOS 4.5 21:51:34 34° N 21:51:34 34° N 21:54:34 10° N
Cosmos 1980 Rocket 4.4 22:17:34 10° N 22:19:27 17° NNE 22:19:27 17° NNE
Cosmos 1943 Rocket 4.4 22:22:36 10° WNW 22:25:49 17° W 22:25:49 17° W
CENTAUR R/B 4.5 22:55:43 10° WNW 23:01:12 26° NNW 23:07:15 10° NE
